#timestamp,LO_Frequency,Hit 
1504371615.7,286047002.5,N
1504371635.5,286046999.3,N
1504371655.4,286046998.2,N
1504371675.2,286046998.7,N
1504371695.0,286046997.4,N
1504371695.9,286046997.4,N
1504371715.8,286046993.8,N
1504371735.6,286046995.8,N
1504371755.4,286046995.8,N
1504371775.3,286046993.4,N
1504371795.1,286046999.2,N
1504371796.0,286046999.2,N
1504371815.8,286046998.7,N
1504371835.7,286046996.9,N
1504371855.5,286046999.1,N
1504371875.3,286046999.0,N
1504371895.2,286047000.4,N
1504371915.9,286047000.5,N
1504371935.7,286047001.9,N
1504371955.6,286046997.8,N
1504371975.4,286046996.6,N
1504371995.2,286046998.0,N
1504372015.0,286046995.6,N
1504372016.0,286046995.6,N
1504372035.8,286047001.2,N
1504372055.6,286046997.0,N
1504372075.4,286047001.5,N
1504372095.3,286047004.5,N
1504372115.1,286047005.1,N
1504372135.8,286047001.7,N
1504372155.7,286047000.2,N
1504372175.5,286047003.7,N
1504372195.3,286047001.8,N
1504372215.2,286047000.7,N
1504372235.9,286046998.3,N
1504372255.7,286047002.8,N
1504372275.6,286046999.9,N
1504372295.4,286046996.6,N
1504372315.2,286046998.8,N
1504372335.0,286046998.1,N
1504372336.0,286046998.1,N
1504372355.8,286046997.3,N
1504372375.6,286046995.3,N
1504372395.4,286046997.4,N
1504372415.3,286046998.0,N
1504372435.1,286046997.9,N
1504372455.8,286046995.3,N
1504372475.7,286046995.5,N
1504372495.5,286046995.4,N
1504372515.3,286046999.4,N
1504372535.2,286046995.3,N
1504372555.9,286046996.2,N
1504372575.7,286046996.6,N
1504372595.6,286047000.8,N
1504372615.4,286046999.7,N
1504372635.2,286047002.6,N
1504372655.1,286047001.7,N
1504372656.0,286047001.7,N
1504372675.8,286047001.5,N
1504372695.6,286047004.2,N
1504372715.4,286047001.4,N
1504372735.3,286047001.7,N
1504372755.1,286047002.0,N
1504372775.8,286047004.1,N
1504372795.7,286047005.9,N
1504372815.5,286047003.1,N
1504372835.3,286047003.2,N
1504372855.2,286047003.4,N
1504372875.9,286047000.3,N
1504372895.7,286047001.4,N
1504372915.6,286047002.0,N
1504372935.4,286047000.0,N
1504372955.2,286047001.5,N
1504372975.1,286047005.2,N
1504372976.0,286047005.2,N
1504372995.8,286047010.2,P
1504373015.6,286047006.1,N
1504373035.5,286047005.3,N
1504373055.3,286047002.6,N
1504373075.1,286047005.2,N
1504373095.9,286047010.5,P
1504373115.7,286047004.4,N
1504373135.5,286046999.9,N
1504373155.4,286046998.2,N
1504373175.2,286046997.9,N
1504373195.0,286046995.1,N
1504373195.9,286046995.1,N
1504373215.8,286046996.2,N
1504373235.6,286046995.5,N
1504373255.4,286046994.4,N
1504373275.3,286046994.0,N
1504373295.1,286046992.2,N
1504373296.0,286046992.2,N
1504373315.8,286046994.0,N
1504373335.6,286046994.0,N
1504373355.5,286046993.9,N
1504373375.3,286046994.1,N
1504373395.1,286046996.4,N
1504373415.9,286046996.3,N
1504373435.7,286046992.2,N
1504373455.5,286046991.1,N
1504373475.4,286046990.7,N
1504373495.2,286046993.8,N
1504373515.0,286046993.3,N
1504373515.9,286046993.3,N
1504373535.8,286046992.6,N
1504373555.6,286046992.3,N
1504373575.4,286046993.5,N
1504373595.2,286046993.8,N
1504373615.1,286046992.3,N
1504373616.0,286046992.3,N
1504373635.8,286046995.9,N
1504373655.6,286046993.8,N
1504373675.5,286046995.6,N
1504373695.3,286046997.2,N
1504373715.1,286046996.2,N
1504373735.9,286046994.4,P
1504373755.7,286046998.1,P
1504373775.5,286047001.1,N
1504373795.4,286047000.0,N
1504373815.2,286047001.6,N
1504373835.0,286047000.3,N
1504373835.9,286047000.3,N
1504373855.8,286047001.7,N
1504373875.6,286047002.3,N
1504373895.4,286046999.7,N
1504373915.3,286046999.7,N
1504373935.1,286047002.4,N
1504373936.0,286047002.4,N
1504373955.8,286047002.2,N
1504373975.7,286047002.8,N
1504373995.5,286047001.5,N
1504374015.3,286047002.3,N
1504374035.1,286047001.6,N
1504374055.9,286047001.7,N
1504374075.7,286047002.1,N
1504374095.5,286047003.2,N
1504374115.4,286047001.6,N
1504374135.2,286046999.8,N
1504374155.0,286047000.7,N
1504374155.9,286047000.7,N
1504374175.8,286046999.8,N
1504374195.6,286047002.5,N
1504374215.4,286047004.1,N
1504374235.3,286047004.4,N
1504374255.1,286047000.3,N
1504374256.0,286047000.3,N
1504374275.8,286047001.8,N
1504374295.7,286047002.0,N
1504374315.5,286047000.6,N
1504374335.3,286047003.2,N
1504374355.1,286047001.5,N
1504374375.9,286047000.6,N
1504374395.7,286047001.8,N
1504374415.5,286047002.0,N
1504374435.4,286047005.7,P
1504374455.2,286046999.9,N
1504374475.0,286047003.9,N
1504374476.0,286047003.9,N
1504374495.8,286047005.7,N
1504374515.6,286047005.5,N
1504374535.4,286047004.2,N
1504374555.3,286047002.5,N
1504374575.1,286047003.3,N
1504374595.8,286047004.2,N
1504374615.7,286047004.0,N
1504374635.5,286047001.5,N
1504374655.3,286047002.9,N
1504374675.2,286047006.3,P
1504374695.9,286047006.0,P
1504374715.7,286047001.8,N
1504374735.6,286047000.5,N
1504374755.4,286047002.2,N
1504374775.2,286047004.1,N
1504374795.1,286047002.6,N
1504374796.0,286047002.6,N
1504374815.8,286047003.2,N
1504374835.6,286047005.5,P
1504374855.5,286046998.1,N
1504374875.3,286047000.2,N
1504374895.1,286047001.1,N
1504374915.9,286047000.3,N
1504374935.7,286047003.1,N
1504374955.5,286047003.7,N
1504374975.3,286047003.5,N
1504374995.2,286047002.0,N
1504375015.0,286047000.1,N
1504375015.9,286047000.1,N
1504375035.7,286047000.0,N
1504375055.6,286046999.0,N
1504375075.4,286046996.7,N
1504375095.2,286046997.1,N
1504375115.1,286046994.1,N
1504375116.0,286046994.1,N
1504375135.8,286046997.1,N
1504375155.6,286047002.7,N
1504375175.5,286047002.7,N
1504375195.3,286046999.8,N
